Weather History for Fort Rucker / Ozark, AL

Change the Weather History Date:

Tuesday, May 13, 2014

  Actual Average (KDHN) Record (KDHN)
Temperature  
Mean Temperature 75 °F 74 °F  
Max Temperature 88 °F 86 °F 95 °F (2000)
Min Temperature 62 °F 62 °F 44 °F (1960)
Cooling Degree Days 10 9  
Month to date cooling degree days 96  
Year to date cooling degree days 217  
Growing Degree Days 25 (Base 50)    
Moisture  
Dew Point 63 °F    
Average Humidity 71    
Maximum Humidity 97    
Minimum Humidity 40    
Precipitation  
Precipitation 0.00 in 0.09 in 1.91 in (1946)
Month to date precipitation 1.20  
Year to date precipitation 20.00  
Sea Level Pressure  
Sea Level Pressure 30.06 in    
Wind  
Wind Speed 2 mph (ESE)    
Max Wind Speed 7 mph    
Max Gust Speed -    
Visibility 9 miles    
Events      
T = Trace of Precipitation, MM = Missing Value Source: NWS Daily Summary

Daily Weather History Graph

Daily Weather History Graph

Search for Another Location

Airport:

Trip Planner

Search our weather history database for the weather conditions in past years. The results will help you decide how hot, cold, wet, or windy it might be!

Date:

Astronomy

May. 13, 2014 Rise Set
Actual Time 5:48 AM CDT 7:30 PM CDT
Civil Twilight 5:21 AM CDT 7:57 PM CDT
Nautical Twilight 4:49 AM CDT 8:29 PM CDT
Astronomical Twilight 4:16 AM CDT 9:02 PM CDT
Moon 6:35 PM CDT (5/13) 4:58 AM CDT (5/13)
Length of Visible Light 14h 35m
Length of Day
13h 42m
Waxing Gibbous, 99% of the Moon is Illuminated
May 13
Waxing Gibbous
May 14
Full
May 21
Last Quarter
May 28
New
Jun 5
First Quarter

Hourly Weather History & Observations

Time (CDT) Temp. Heat Index Dew Point Humidity Pressure Visibility Wind Dir Wind Speed Gust Speed Precip Events Conditions
12:53 AM 64.9 °F - 64.0 °F 97% 30.07 in 7.0 mi Calm Calm - N/A   Clear
1:53 AM 64.0 °F - 62.1 °F 93% 30.06 in 7.0 mi Calm Calm - N/A   Clear
2:53 AM 63.0 °F - 61.0 °F 93% 30.06 in 6.0 mi Calm Calm - N/A   Clear
3:53 AM 63.0 °F - 61.0 °F 93% 30.06 in 8.0 mi NE 3.5 mph - N/A   Clear
4:53 AM 63.0 °F - 61.0 °F 93% 30.07 in 6.0 mi Calm Calm - N/A   Clear
5:53 AM 62.1 °F - 60.1 °F 93% 30.08 in 7.0 mi Calm Calm - N/A   Clear
6:53 AM 66.9 °F - 64.9 °F 93% 30.10 in 6.0 mi Calm Calm - N/A   Clear
8:53 AM 75.9 °F - 68.0 °F 76% 30.12 in 10.0 mi SSE 5.8 mph - N/A   Clear
11:53 AM 82.0 °F 84.1 °F 66.0 °F 58% 30.11 in 10.0 mi Calm Calm - N/A   Unknown
12:53 PM 87.1 °F 88.3 °F 64.0 °F 46% 30.09 in 10.0 mi Variable 4.6 mph - N/A   Partly Cloudy
1:53 PM 87.1 °F 87.8 °F 63.0 °F 44% 30.07 in 10.0 mi South 6.9 mph - N/A   Clear
2:53 PM 87.1 °F 87.8 °F 63.0 °F 44% 30.05 in 10.0 mi ESE 6.9 mph - N/A   Scattered Clouds
3:53 PM 88.0 °F 88.4 °F 62.1 °F 42% 30.03 in 10.0 mi ESE 4.6 mph - N/A   Partly Cloudy
4:53 PM 87.1 °F 86.7 °F 60.1 °F 40% 30.01 in 10.0 mi Variable 5.8 mph - N/A   Clear
5:53 PM 86.0 °F 86.1 °F 61.0 °F 43% 30.01 in 10.0 mi Variable 3.5 mph - N/A   Clear
6:53 PM 82.9 °F 84.0 °F 63.0 °F 51% 30.01 in 10.0 mi Calm Calm - N/A   Clear
7:53 PM 78.1 °F - 64.0 °F 62% 30.02 in 10.0 mi East 3.5 mph - N/A   Clear
8:53 PM 73.0 °F - 66.0 °F 79% 30.04 in 10.0 mi Calm Calm - N/A   Clear
9:53 PM 72.0 °F - 64.9 °F 78% 30.06 in 10.0 mi Calm Calm - N/A   Clear
10:53 PM 70.0 °F - 64.9 °F 84% 30.06 in 10.0 mi Calm Calm - N/A   Clear
11:53 PM 69.1 °F - 64.9 °F 87% 30.05 in 10.0 mi Calm Calm - N/A   Clear